Weather in Izyaslav

Ukraine / Khmelnitsky District     50˚07′08″N   26˚49′19″E
temp.,
°C
wind,
m/s
gust,
m/s
humid.,
%
clouds,
%
prec.,
mm/h
press.,
hPa
HPBL,
m
28 november, sat
sat2823:00+2˚w4894100 0.1 1020363
02:00+2˚wsw3690100 0.1 1019242
05:00+1˚w3796100 0.1 1018306
08:00+2˚w368798 0.3 1018505
11:00+1˚wsw4695100 0.1 1018377
14:00+2˚w468199 0.2 1018590
17:00+1˚w4685100 0.1 1017610
20:00sw369799 0.3 1018324
29 november, sun
sun2923:00wsw359799 0.3 1018234
02:00−1˚wnw239599 0.5 1018235
05:00−1˚w2395100 0.3 1018204
08:00−1˚wnw1296100 0.4 1019155
11:00wnw2285100 0.1 1020371
14:00wsw2279100 0.2 1020496
17:00−1˚sw1285100 0.1 102022
20:00−2˚sw228993 0.1 102152
30 november, mon
mon3023:00−2˚sw239242 0.0 102256
02:00−3˚wsw229421 0.0 102360
05:00−3˚wsw12954 0.0 102330
08:00−3˚w239618 0.0 102578
11:00−1˚wnw347935 0.0 1026501
14:00wnw347059 0.0 1026784
17:00−1˚wnw2377100 0.0 1027371
20:00−1˚wnw2377100 0.1 1028376
1 december, tue
tue123:00−1˚nw2373100 0.0 1028258
02:00−3˚nnw118082 0.0 102824
05:00−3˚e11810 0.0 102821
08:00−4˚se22850 0.0 102931
11:00−1˚se23700 0.0 1029499
14:00ese23650 0.0 1028619
17:00−3˚e34800 0.0 102888
20:00−4˚e36840 0.0 1028163
2 december, wed
wed223:00−4˚e35870 0.0 1028139
02:00−4˚e23920 0.0 102877
05:00−4˚e35956 0.0 1027137
08:00−4˚e259728 0.0 1027156
11:00−1˚ese248898 0.1 1027276
14:00ese348687 0.1 1026371
17:00ese358990 0.0 1025249
20:00−1˚ese258995 0.0 1026253